Location: Simi Valley
(34.2690°N, 118.7810°W)
Time: 23:33:26
(UTC-07:00)

SAR-Lupe-1 - Visible Passes

Search period start: 01 August 2014 00:00
Search period end: 11 August 2014 00:00
Orbit: 481 x 485 km, 98.1° (Epoch: 28 July)

Date Brightness Start Highest point End Pass type
(mag) Time Alt. Az. Time Alt. Az. Time Alt. Az.
02 Aug 7.0 03:11:34 10° NNW 03:11:50 12° NNW 03:11:50 12° NNW visible
03 Aug 7.2 02:46:25 10° N 02:46:47 13° N 02:46:47 13° N visible
04 Aug 7.5 02:21:43 10° NNE 02:21:44 10° NNE 02:21:44 10° NNE visible
06 Aug 7.2 03:05:49 10° N 03:05:58 11° N 03:05:58 11° N visible
07 Aug 7.4 02:40:49 10° N 02:40:55 11° N 02:40:55 11° N visible
